CDT,Max TemperatureF,Mean TemperatureF,Min TemperatureF,Max Dew PointF,MeanDew PointF,Min DewpointF,Max Humidity, Mean Humidity, Min Humidity, Max Sea Level PressureIn, Mean Sea Level PressureIn, Min Sea Level PressureIn, Max VisibilityMiles, Mean VisibilityMiles, Min VisibilityMiles, Max Wind SpeedMPH, Mean Wind SpeedMPH, Max Gust SpeedMPH,PrecipitationIn, CloudCover, Events, WindDirDegrees
2013-5-1,58,49,39,47,41,34,83,70,57,30.31,30.15,29.91,10,10,10,35,21,41,0.00,6,,360
2013-5-2,39,36,32,34,31,30,92,86,79,30.42,30.35,30.28,10,4,0,29,20,36,0.79,8,Fog-Rain-Snow,357
2013-5-3,36,34,32,34,31,30,96,93,89,30.32,30.15,29.97,10,5,1,22,14,26,1.35,8,Rain-Snow,3
2013-5-4,66,51,36,59,46,34,100,84,68,30.06,29.99,29.93,10,8,2,20,10,22,0.17,7,Rain,28
2013-5-5,71,57,43,54,48,41,96,77,57,30.10,30.05,30.01,10,10,10,16,8,20,0.00,2,,332
2013-5-6,75,62,48,53,48,43,93,63,33,30.09,30.04,30.00,10,9,6,14,4,17,0.00,2,,307
2013-5-7,78,63,47,52,45,40,93,60,27,30.07,30.02,29.97,10,10,6,9,2,13,0.00,1,,294
2013-5-8,78,63,48,58,51,46,93,63,33,30.01,29.98,29.94,10,10,7,23,6,28,0.06,4,Rain,162
2013-5-9,66,60,54,61,58,52,100,89,78,29.94,29.88,29.81,10,7,1,22,9,28,0.45,8,Rain,112
2013-5-10,65,56,46,52,48,43,96,76,56,30.02,29.96,29.90,10,10,6,21,9,25,0.00,7,,4
2013-5-11,56,48,39,47,30,16,93,58,22,30.17,30.05,29.91,10,10,6,35,20,44,0.00,2,,315
2013-5-12,58,46,33,30,25,20,75,49,23,30.24,30.18,30.12,10,10,10,21,8,26,0.00,0,,315
2013-5-13,71,52,32,44,35,28,89,58,27,30.15,30.04,29.81,10,10,10,22,9,28,T,1,,179
2013-5-14,96,74,52,57,51,40,86,53,20,29.79,29.67,29.53,10,10,10,33,13,40,0.00,0,,217
2013-5-15,80,68,56,49,44,34,64,45,25,29.90,29.83,29.68,10,10,10,21,9,26,T,0,,355
2013-5-16,82,65,48,54,49,46,93,62,30,29.93,29.87,29.82,10,10,10,13,4,21,0.00,1,,145
2013-5-17,80,70,59,61,56,51,90,68,45,29.96,29.91,29.84,10,10,9,18,10,22,0.00,2,,111
2013-5-18,83,70,57,64,59,53,93,70,47,29.97,29.91,29.81,10,8,2,12,10,16,0.00,3,,133
2013-5-19,84,73,62,68,64,60,100,76,51,29.82,29.69,29.57,10,7,1,35,16,51,1.85,5,Rain-Thunderstorm,144
2013-5-20,77,68,59,64,60,55,100,75,50,29.67,29.61,29.56,10,9,2,24,14,36,0.71,5,Rain-Thunderstorm,192
2013-5-21,69,63,56,59,55,51,97,76,55,29.66,29.62,29.53,10,10,10,21,10,28,0.00,6,,227
2013-5-22,67,61,54,57,54,50,100,87,73,29.82,29.69,29.64,10,10,5,21,8,24,0.01,7,Rain,247
2013-5-23,67,56,45,54,47,39,93,68,43,30.29,30.08,29.84,10,10,4,20,11,29,0.01,4,Rain,16
2013-5-24,68,55,42,48,41,37,83,59,34,30.42,30.33,30.21,10,10,8,18,9,25,0.03,2,Rain,124
2013-5-25,59,54,49,49,47,42,100,77,53,30.30,30.25,30.18,10,8,2,25,14,36,0.87,8,Rain-Thunderstorm,121
2013-5-26,55,51,47,54,48,45,93,88,83,30.22,30.13,29.99,10,6,2,33,13,44,1.27,8,Rain-Thunderstorm,107
2013-5-27,67,61,55,63,58,54,100,94,87,30.04,29.87,29.77,10,5,1,33,11,39,0.02,8,Rain,111
2013-5-28,78,68,58,66,61,57,100,80,60,29.78,29.71,29.65,10,6,1,15,6,22,0.40,6,Rain-Thunderstorm,141
2013-5-29,80,69,57,68,63,57,100,85,69,29.82,29.76,29.72,10,8,1,37,9,49,2.81,6,Rain-Thunderstorm,156
2013-5-30,77,70,62,65,63,59,93,79,64,29.73,29.65,29.58,10,10,10,29,15,39,0.01,3,Rain,167
2013-5-31,77,69,61,63,61,59,97,79,60,29.69,29.66,29.61,10,10,10,25,15,36,0.00,4,,183